Regional Weather Roundup
Issued by NWS Green Bay, WI

Home | Current Version | Previous Version | Graphics & Text | Print | Product List | Glossary Off
Versions: 1 2 3 4 5 6 7 8 9 10 11 12 13 14 15 16 17 18 19 20 21 22 23 24 25 26 27 28 29 30 31 32 33 34 35 36 37 38 39 40 41 42 43 44 45 46 47 48 49 50

000
ASUS43 KGRB 290110
RWRGRB

NORTH-CENTRAL AND NORTHEAST WISCONSIN REGIONAL WEATHER ROUNDUP
NATIONAL WEATHER SERVICE GREEN BAY WI
800 PM CDT THU AUG 28 2014

WIZ005-009-010>012-018-019-290200-
NORTH CENTRAL WISCONSIN

CITY           SKY/WX    TMP DP  RH WIND       PRES   REMARKS
IRONWOOD       NOT AVBL
MANITOWISH WTR CLOUDY    63  58  85 S3        30.05S
ARBOR VITAE    CLOUDY    65  58  77 S6        30.06S
EAGLE RIVER    CLOUDY    63  56  77 S3        30.06S
LAND O LAKES   CLOUDY    64  57  78 CALM      30.06S
RHINELANDER    CLOUDY    64  59  83 S3        30.07S
PHILLIPS       CLOUDY    65  60  83 SE3       30.04S
ANTIGO         DRIZZLE   62  60  95 SE6       30.08S
TOMAHAWK       CLOUDY    63  60  89 SE3       30.06F
MERRILL        RAIN      64  62  94 SE7       30.06S
$$

WIZ013-073-290200-
NORTHEAST WISCONSIN

CITY           SKY/WX    TMP DP  RH WIND       PRES   REMARKS
IRON MOUNTAIN  CLOUDY    63  57  81 SE8       30.07S
MARINETTE      CLOUDY    64  54  68 S7        30.08S
OCONTO         CLOUDY    64  55  73 S3        30.08S
$$

WIZ017-030-035>037-045-290200-
CENTRAL WISCONSIN

CITY           SKY/WX    TMP DP  RH WIND       PRES   REMARKS
MEDFORD        DRIZZLE   63  62  96 SE5       30.05S
WAUSAU         LGT RAIN  64  62  93 SE7       30.05R
MOSINEE        LGT RAIN  63  63 100 SE7       30.07R
MARSHFIELD     RAIN      65  63  93 SE6       30.05R FOG
WISC RAPIDS    LGT RAIN  65  61  87 SE9       30.06R
STEVENS POINT  CLOUDY    62  59  91 SE7       30.06S
WAUPACA        LGT RAIN  65  61  87 SE6       30.08S
SHAWANO        CLOUDY    66  58  76 S6        30.08S
CLINTONVILLE   LGT RAIN  63  57  82 SE6       30.07S
$$

WIZ038-039-048-051-290200-
FOX VALLEY

CITY           SKY/WX    TMP DP  RH WIND       PRES   REMARKS
NWS GREEN BAY  CLOUDY    63  56  78 S5        30.08S
APPLETON       LGT RAIN  63  55  77 SE8       30.09S
OSHKOSH        LGT RAIN  64  55  72 SE6       30.07F
FOND DU LAC    LGT RAIN  64  53  67 SE6       30.07F
$$

WIZ022-050-052-290200-
EAST CENTRAL WISCONSIN

CITY           SKY/WX    TMP DP  RH WIND       PRES   REMARKS
STURGEON BAY   CLOUDY    63  54  72 SE5       30.10S
MANITOWOC      LGT RAIN  65  58  78 SE5       30.10S
SHEBOYGAN      CLOUDY    63  56  78 CALM      30.09S
$$

LMZ563-521-522-541>543-290200-
LAKESHORE

STATION/POSITION TIME  TEMP    WIND        PRES    VSBY  WAVE
                       AIR SEA DIR/SP/G                  HT/PER
                 (UTC) (F)     (DEG/KT/KT) (MB)    (MI)  (FT/S)
SHEBOYGAN LKSHOR 0100   66 68   80/  6/  7 1019.0F
KEWAUNEE LKSHORE 0100   65     130/  6/  7 1018.1S
ALGOMA MARINA    0000          190/  7/  8   N/A
TWO RIVERS CG    0000                      1019.2      6   2
NORTHPORT PIER   0100   65     130/  9/ 10 1019.0S
N MID LAKE BUOY  0100   64 66  120/  6/  8 1019.5F         0
S GREEN BAY BUOY 0100   66     VRB 10/ 12  1019.6R
SISTER BAY LKSHO 0000   63     120/  6/  9   N/A
STURGEON BAY CG  0000   65 66  150/  5     1019.2      6   1
CHAMBERS ISLAND  0100   63     130/  2/  5 1019.0S
MENOMINEE LKSHOR 0100   66     160/  9/ 13 1019.1F
$$


USA.gov is the U.S. government's official web portal to all federal, state and local government web resources and services.